Location: Ferchesar
(52.6477°N, 12.4298°E)
Time: 20:22:44
(UTC+01:00)

A-11 Canister half - Pass Details

Date: 12 December 2021
Orbit: 1516 x 1684 km, 47.2° (Epoch: 23 January)

Event Time Altitude Azimuth Distance (km) Brightness Sun altitude
Rises 07:16:17 0° 255° (WSW) 4,751 11.1 -8.0°
Reaches altitude 10° 07:19:20 10° 252° (WSW) 3,789 10.7 -7.6°
Maximum altitude 07:28:50 64° 174° (S) 1,770 9.6 -6.3°
Drops below altitude 10° 07:38:40 10° 96° (E) 3,916 12.4 -5.0°
Sets 07:41:53 0° 94° (E) 4,918 12.9 -4.6°
